Time,TemperatureF,DewpointF,PressureIn,WindDirection,WindDirectionDegrees,WindSpeedMPH,WindSpeedGustMPH,Humidity,HourlyPrecipIn,Conditions,Clouds,dailyrainin,SoftwareType,DateUTC
2013-04-01 00:03:00,46.0,37.0,29.82,West,264,7.0,13.0,70,0.00,,,0.01,,2013-04-01 04:03:00,
2013-04-01 00:14:00,46.0,37.0,29.82,West,264,7.0,13.0,70,0.00,,,0.01,,2013-04-01 04:14:00,
2013-04-01 00:23:00,45.0,37.0,29.83,WSW,242,8.0,15.0,72,0.00,,,0.01,,2013-04-01 04:23:00,
2013-04-01 00:33:00,44.0,36.0,29.83,SW,225,9.0,16.0,72,0.00,,,0.01,,2013-04-01 04:33:00,
2013-04-01 00:43:00,44.0,36.0,29.83,SW,225,9.0,16.0,72,0.00,,,0.01,,2013-04-01 04:43:00,
2013-04-01 00:53:00,43.0,35.0,29.84,West,272,7.0,16.0,73,0.00,,,0.01,,2013-04-01 04:53:00,
2013-04-01 01:03:00,42.0,34.0,29.84,WSW,257,7.0,14.0,74,0.00,,,0.01,,2013-04-01 05:03:00,
2013-04-01 01:13:00,42.0,34.0,29.84,WSW,257,7.0,14.0,74,0.00,,,0.01,,2013-04-01 05:13:00,
2013-04-01 01:22:00,40.0,32.0,29.84,West,259,7.0,16.0,72,0.00,,,0.01,,2013-04-01 05:22:00,
2013-04-01 01:32:00,40.0,31.0,29.85,West,259,6.0,13.0,70,0.00,,,0.01,,2013-04-01 05:32:00,
2013-04-01 01:43:00,40.0,31.0,29.85,West,259,6.0,13.0,70,0.00,,,0.01,,2013-04-01 05:43:00,
2013-04-01 01:53:00,39.0,31.0,29.85,WSW,243,3.0,9.0,73,0.00,,,0.01,,2013-04-01 05:53:00,
2013-04-01 02:02:00,38.0,31.0,29.85,SW,233,4.0,11.0,75,0.00,,,0.01,,2013-04-01 06:02:00,
2013-04-01 02:12:00,38.0,31.0,29.85,SW,233,4.0,11.0,75,0.00,,,0.01,,2013-04-01 06:12:00,
2013-04-01 02:23:00,37.0,30.0,29.86,SW,236,5.0,10.0,76,0.00,,,0.01,,2013-04-01 06:23:00,
2013-04-01 02:33:00,38.0,31.0,29.86,SW,218,3.0,7.0,76,0.00,,,0.01,,2013-04-01 06:33:00,
2013-04-01 02:43:00,38.0,31.0,29.86,SW,218,3.0,7.0,76,0.00,,,0.01,,2013-04-01 06:43:00,
2013-04-01 02:53:00,37.0,30.0,29.86,SW,224,4.0,7.0,77,0.00,,,0.01,,2013-04-01 06:53:00,
2013-04-01 03:03:00,38.0,31.0,29.87,SW,236,2.0,7.0,76,0.00,,,0.01,,2013-04-01 07:03:00,
2013-04-01 03:13:00,38.0,31.0,29.87,SW,236,2.0,7.0,76,0.00,,,0.01,,2013-04-01 07:13:00,
2013-04-01 03:22:00,38.0,31.0,29.87,SSW,205,5.0,10.0,75,0.00,,,0.01,,2013-04-01 07:22:00,
2013-04-01 03:32:00,38.0,30.0,29.87,SW,219,4.0,10.0,74,0.00,,,0.01,,2013-04-01 07:32:00,
2013-04-01 03:42:00,38.0,30.0,29.87,SW,219,4.0,10.0,74,0.00,,,0.01,,2013-04-01 07:42:00,
2013-04-01 03:53:00,37.0,30.0,29.88,West,281,2.0,6.0,76,0.00,,,0.01,,2013-04-01 07:53:00,
2013-04-01 04:03:00,36.0,29.0,29.88,WSW,247,4.0,7.0,77,0.00,,,0.01,,2013-04-01 08:03:00,
2013-04-01 04:12:00,36.0,29.0,29.88,WSW,247,4.0,7.0,77,0.00,,,0.01,,2013-04-01 08:12:00,
2013-04-01 04:22:00,36.0,30.0,29.89,WSW,242,4.0,10.0,79,0.00,,,0.01,,2013-04-01 08:22:00,
2013-04-01 04:32:00,35.0,29.0,29.89,WSW,252,4.0,10.0,79,0.00,,,0.01,,2013-04-01 08:32:00,
2013-04-01 04:43:00,35.0,29.0,29.89,WSW,252,4.0,10.0,79,0.00,,,0.01,,2013-04-01 08:43:00,
2013-04-01 04:53:00,35.0,30.0,29.90,SSW,202,4.0,9.0,81,0.00,,,0.01,,2013-04-01 08:53:00,
2013-04-01 05:02:00,35.0,30.0,29.90,WSW,244,5.0,10.0,81,0.00,,,0.01,,2013-04-01 09:02:00,
2013-04-01 05:12:00,35.0,30.0,29.90,WSW,244,5.0,10.0,81,0.00,,,0.01,,2013-04-01 09:12:00,
2013-04-01 05:23:00,34.0,29.0,29.91,SW,221,5.0,10.0,82,0.00,,,0.01,,2013-04-01 09:23:00,
2013-04-01 05:33:00,34.0,29.0,29.92,WNW,284,5.0,11.0,82,0.00,,,0.01,,2013-04-01 09:33:00,
2013-04-01 05:42:00,34.0,29.0,29.92,WNW,284,5.0,11.0,82,0.00,,,0.01,,2013-04-01 09:42:00,
2013-04-01 05:53:00,34.0,29.0,29.92,West,263,6.0,11.0,81,0.00,,,0.01,,2013-04-01 09:53:00,
2013-04-01 06:03:00,34.0,29.0,29.92,West,263,6.0,11.0,81,0.00,,,0.01,,2013-04-01 10:03:00,
2013-04-01 06:13:00,34.0,29.0,29.92,West,263,6.0,11.0,81,0.00,,,0.01,,2013-04-01 10:13:00,
2013-04-01 09:33:00,36.0,23.0,30.06,West,272,9.0,12.0,59,-99.99,,,-99.99,,2013-04-01 13:33:00,
2013-04-01 09:43:00,36.0,23.0,30.06,West,272,9.0,12.0,59,-99.99,,,-99.99,,2013-04-01 13:43:00,
2013-04-01 09:53:00,37.0,24.0,30.06,WNW,303,7.0,15.0,58,-99.99,,,-99.99,,2013-04-01 13:53:00,
2013-04-01 10:04:00,37.0,23.0,30.06,WNW,299,6.0,12.0,57,-99.99,,,-99.99,,2013-04-01 14:04:00,
2013-04-01 10:12:00,37.0,23.0,30.06,WNW,299,6.0,12.0,57,-99.99,,,-99.99,,2013-04-01 14:12:00,
2013-04-01 10:22:00,38.0,23.0,30.07,WSW,255,10.0,16.0,55,-99.99,,,-99.99,,2013-04-01 14:22:00,
2013-04-01 10:33:00,39.0,23.0,30.07,WSW,252,8.0,17.0,52,0.00,,,-99.99,,2013-04-01 14:33:00,
2013-04-01 10:42:00,39.0,23.0,30.07,WSW,252,8.0,17.0,52,0.00,,,-99.99,,2013-04-01 14:42:00,
2013-04-01 10:53:00,37.0,21.0,30.08,WNW,283,10.0,16.0,52,0.00,,,-99.99,,2013-04-01 14:53:00,
2013-04-01 11:03:00,38.0,23.0,30.08,WSW,248,7.0,15.0,54,0.00,,,-99.99,,2013-04-01 15:03:00,
2013-04-01 11:13:00,38.0,23.0,30.08,WSW,248,7.0,15.0,54,0.00,,,-99.99,,2013-04-01 15:13:00,
2013-04-01 11:22:00,39.0,23.0,30.09,WNW,287,11.0,17.0,53,0.00,,,-99.99,,2013-04-01 15:22:00,
2013-04-01 11:34:00,41.0,25.0,30.09,West,280,10.0,16.0,53,0.00,,,-99.99,,2013-04-01 15:34:00,
2013-04-01 11:43:00,41.0,25.0,30.09,West,280,10.0,16.0,53,0.00,,,-99.99,,2013-04-01 15:43:00,
2013-04-01 11:54:00,40.0,23.0,30.09,WSW,242,10.0,18.0,50,0.00,,,-99.99,,2013-04-01 15:54:00,
2013-04-01 12:03:00,40.0,24.0,30.09,West,260,9.0,15.0,52,0.00,,,-99.99,,2013-04-01 16:03:00,
2013-04-01 12:13:00,40.0,24.0,30.09,West,260,9.0,15.0,52,0.00,,,-99.99,,2013-04-01 16:13:00,
2013-04-01 12:23:00,40.0,24.0,30.09,WSW,244,7.0,13.0,52,0.00,,,-99.99,,2013-04-01 16:23:00,
2013-04-01 12:33:00,41.0,23.0,30.09,West,259,10.0,13.0,48,0.00,,,-99.99,,2013-04-01 16:33:00,
2013-04-01 12:43:00,41.0,23.0,30.09,West,259,10.0,13.0,48,0.00,,,-99.99,,2013-04-01 16:43:00,
2013-04-01 12:53:00,41.0,24.0,30.10,West,279,8.0,16.0,50,0.00,,,-99.99,,2013-04-01 16:53:00,
2013-04-01 13:03:00,41.0,24.0,30.10,WSW,257,5.0,15.0,50,0.00,,,-99.99,,2013-04-01 17:03:00,
2013-04-01 13:13:00,41.0,24.0,30.10,WSW,257,5.0,15.0,50,0.00,,,-99.99,,2013-04-01 17:13:00,
2013-04-01 13:23:00,43.0,24.0,30.09,WSW,252,11.0,16.0,46,0.00,,,-99.99,,2013-04-01 17:23:00,
2013-04-01 13:32:00,43.0,24.0,30.09,WSW,252,11.0,16.0,46,0.00,,,-99.99,,2013-04-01 17:32:00,
2013-04-01 13:42:00,43.0,24.0,30.09,WSW,252,11.0,16.0,46,0.00,,,-99.99,,2013-04-01 17:42:00,
2013-04-01 13:53:00,43.0,25.0,30.09,SSW,213,9.0,19.0,48,0.00,,,-99.99,,2013-04-01 17:53:00,
2013-04-01 14:03:00,44.0,26.0,30.09,SSW,194,9.0,17.0,49,0.00,,,-99.99,,2013-04-01 18:03:00,
2013-04-01 14:12:00,44.0,26.0,30.09,SSW,194,9.0,17.0,49,0.00,,,-99.99,,2013-04-01 18:12:00,
2013-04-01 14:22:00,42.0,24.0,30.09,WSW,238,7.0,22.0,48,0.00,,,-99.99,,2013-04-01 18:22:00,
2013-04-01 14:33:00,43.0,23.0,30.09,SSW,213,11.0,20.0,44,0.00,,,-99.99,,2013-04-01 18:33:00,
2013-04-01 14:43:00,43.0,23.0,30.09,SSW,213,11.0,20.0,44,0.00,,,-99.99,,2013-04-01 18:43:00,
2013-04-01 14:53:00,45.0,24.0,30.09,SW,216,9.0,17.0,44,0.00,,,-99.99,,2013-04-01 18:53:00,
2013-04-01 15:03:00,44.0,23.0,30.09,WSW,248,6.0,15.0,44,0.00,,,-99.99,,2013-04-01 19:03:00,
2013-04-01 15:13:00,44.0,23.0,30.09,WSW,248,6.0,15.0,44,0.00,,,-99.99,,2013-04-01 19:13:00,
2013-04-01 15:23:00,42.0,22.0,30.09,West,281,7.0,16.0,44,0.00,,,-99.99,,2013-04-01 19:23:00,
2013-04-01 15:32:00,44.0,24.0,30.08,WSW,237,5.0,15.0,45,0.00,,,-99.99,,2013-04-01 19:32:00,
2013-04-01 15:42:00,44.0,24.0,30.08,WSW,237,5.0,15.0,45,0.00,,,-99.99,,2013-04-01 19:42:00,
2013-04-01 15:53:00,43.0,24.0,30.09,SW,221,5.0,18.0,46,0.00,,,-99.99,,2013-04-01 19:53:00,
2013-04-01 16:02:00,46.0,25.0,30.08,WSW,248,10.0,18.0,44,0.00,,,-99.99,,2013-04-01 20:02:00,
2013-04-01 16:13:00,46.0,25.0,30.08,WSW,248,10.0,18.0,44,0.00,,,-99.99,,2013-04-01 20:13:00,
2013-04-01 16:23:00,44.0,23.0,30.09,SW,234,10.0,16.0,43,0.00,,,-99.99,,2013-04-01 20:23:00,
2013-04-01 16:33:00,45.0,21.0,30.09,West,263,11.0,23.0,38,0.00,,,-99.99,,2013-04-01 20:33:00,
2013-04-01 16:43:00,45.0,21.0,30.09,West,263,11.0,23.0,38,0.00,,,-99.99,,2013-04-01 20:43:00,
2013-04-01 16:52:00,44.0,23.0,30.09,SSW,202,9.0,18.0,43,0.00,,,-99.99,,2013-04-01 20:52:00,
2013-04-01 17:02:00,42.0,21.0,30.09,West,265,6.0,21.0,43,0.00,,,-99.99,,2013-04-01 21:02:00,
2013-04-01 17:12:00,42.0,21.0,30.09,West,265,6.0,21.0,43,0.00,,,-99.99,,2013-04-01 21:12:00,
2013-04-01 17:23:00,43.0,22.0,30.09,SW,219,7.0,24.0,43,0.00,,,-99.99,,2013-04-01 21:23:00,
2013-04-01 17:32:00,43.0,22.0,30.10,SW,236,12.0,17.0,42,0.00,,,-99.99,,2013-04-01 21:32:00,
2013-04-01 17:43:00,43.0,22.0,30.10,SW,236,12.0,17.0,42,0.00,,,-99.99,,2013-04-01 21:43:00,
2013-04-01 17:53:00,45.0,22.0,30.10,WSW,258,15.0,19.0,39,0.00,,,-99.99,,2013-04-01 21:53:00,
2013-04-01 18:03:00,42.0,19.0,30.10,SSW,206,15.0,21.0,40,0.00,,,-99.99,,2013-04-01 22:03:00,
2013-04-01 18:12:00,42.0,19.0,30.10,SSW,206,15.0,21.0,40,0.00,,,-99.99,,2013-04-01 22:12:00,
2013-04-01 18:23:00,43.0,20.0,30.10,WSW,243,10.0,20.0,40,0.00,,,-99.99,,2013-04-01 22:23:00,
2013-04-01 18:33:00,43.0,20.0,30.10,WSW,252,12.0,20.0,39,0.00,,,-99.99,,2013-04-01 22:33:00,
2013-04-01 18:43:00,43.0,20.0,30.10,WSW,252,12.0,20.0,39,0.00,,,-99.99,,2013-04-01 22:43:00,
2013-04-01 18:52:00,43.0,20.0,30.11,SW,227,8.0,20.0,40,0.00,,,-99.99,,2013-04-01 22:52:00,
2013-04-01 19:02:00,42.0,19.0,30.11,WSW,253,11.0,16.0,40,0.00,,,-99.99,,2013-04-01 23:02:00,
2013-04-01 19:12:00,42.0,19.0,30.11,WSW,253,11.0,16.0,40,0.00,,,-99.99,,2013-04-01 23:12:00,
2013-04-01 19:23:00,41.0,19.0,30.11,NNW,327,8.0,16.0,41,0.00,,,-99.99,,2013-04-01 23:23:00,
2013-04-01 19:32:00,40.0,19.0,30.12,WNW,284,12.0,18.0,42,0.00,,,-99.99,,2013-04-01 23:32:00,
2013-04-01 19:43:00,40.0,19.0,30.12,WNW,284,12.0,18.0,42,0.00,,,-99.99,,2013-04-01 23:43:00,
2013-04-01 19:53:00,38.0,18.0,30.13,West,274,7.0,15.0,44,0.00,,,-99.99,,2013-04-01 23:53:00,
2013-04-01 20:03:00,37.0,18.0,30.13,WSW,248,9.0,14.0,45,0.00,,,0.00,,2013-04-02 00:03:00,
2013-04-01 20:12:00,37.0,18.0,30.13,WSW,248,9.0,14.0,45,0.00,,,0.00,,2013-04-02 00:12:00,
2013-04-01 20:22:00,35.0,16.0,30.13,WSW,240,7.0,14.0,46,0.00,,,0.00,,2013-04-02 00:22:00,
2013-04-01 20:33:00,34.0,16.0,30.13,NW,311,5.0,12.0,47,0.00,,,0.00,,2013-04-02 00:33:00,
2013-04-01 20:42:00,34.0,16.0,30.13,NW,311,5.0,12.0,47,0.00,,,0.00,,2013-04-02 00:42:00,
2013-04-01 20:53:00,33.0,16.0,30.13,West,260,4.0,11.0,50,0.00,,,0.00,,2013-04-02 00:53:00,
2013-04-01 21:02:00,33.0,17.0,30.14,West,281,3.0,7.0,51,0.00,,,0.00,,2013-04-02 01:02:00,
2013-04-01 21:12:00,33.0,17.0,30.14,West,281,3.0,7.0,51,0.00,,,0.00,,2013-04-02 01:12:00,
2013-04-01 21:22:00,32.0,17.0,30.14,West,279,5.0,9.0,54,0.00,,,0.00,,2013-04-02 01:22:00,
2013-04-01 21:32:00,32.0,18.0,30.15,West,262,4.0,9.0,55,0.00,,,0.00,,2013-04-02 01:32:00,
2013-04-01 21:42:00,32.0,18.0,30.15,West,262,4.0,9.0,55,0.00,,,0.00,,2013-04-02 01:42:00,
2013-04-01 21:53:00,31.0,18.0,30.15,WNW,284,2.0,16.0,57,0.00,,,0.00,,2013-04-02 01:53:00,
2013-04-01 22:03:00,30.0,17.0,30.16,WNW,288,3.0,6.0,58,0.00,,,0.00,,2013-04-02 02:03:00,
2013-04-01 22:12:00,30.0,17.0,30.16,WNW,288,3.0,6.0,58,0.00,,,0.00,,2013-04-02 02:12:00,
2013-04-01 22:22:00,30.0,17.0,30.17,West,279,4.0,7.0,58,0.00,,,0.00,,2013-04-02 02:22:00,
2013-04-01 22:32:00,30.0,17.0,30.17,West,271,4.0,9.0,59,0.00,,,0.00,,2013-04-02 02:32:00,
2013-04-01 22:42:00,30.0,17.0,30.17,West,271,4.0,9.0,59,0.00,,,0.00,,2013-04-02 02:42:00,
2013-04-01 22:53:00,29.0,16.0,30.18,WNW,290,4.0,8.0,59,0.00,,,0.00,,2013-04-02 02:53:00,
2013-04-01 23:02:00,29.0,17.0,30.19,West,274,3.0,5.0,60,0.00,,,0.00,,2013-04-02 03:02:00,
2013-04-01 23:12:00,29.0,17.0,30.19,West,274,3.0,5.0,60,0.00,,,0.00,,2013-04-02 03:12:00,
2013-04-01 23:22:00,28.0,17.0,30.19,WNW,301,3.0,6.0,62,0.00,,,0.00,,2013-04-02 03:22:00,
2013-04-01 23:33:00,28.0,17.0,30.19,WNW,290,2.0,5.0,63,0.00,,,0.00,,2013-04-02 03:33:00,
2013-04-01 23:43:00,28.0,17.0,30.19,WNW,290,2.0,5.0,63,0.00,,,0.00,,2013-04-02 03:43:00,
2013-04-01 23:53:00,27.0,16.0,30.19,West,272,2.0,3.0,63,0.00,,,0.00,,2013-04-02 03:53:00,